Location: Foligno
(42.9600°N, 12.7050°E)
Time: 01:53:44
(UTC+02:00)

ISS - Pass Details

Date: 21 May 2018
Orbit: 402 x 407 km, 51.6° (Epoch: 26 May)

Event Time Altitude Azimuth Distance (km) Brightness Sun altitude
Rises 23:51:09 0° 274° (W) 2,315 0.3 -24.4°
Reaches altitude 10° 23:53:30 10° 290° (WNW) 1,456 -0.6 -24.6°
Maximum altitude 23:56:11 23° 345° (NNW) 913 -1.3 -24.7°
Drops below altitude 10° 23:58:52 10° 40° (NE) 1,458 -0.6 -24.9°
Sets 00:01:14 0° 56° (NE) 2,319 0.2 -25.0°
